Regional Weather Roundup
Issued by NWS

Home | Current Version | Previous Version | Graphics & Text | Print | Product List | Glossary On
Versions: 1 2 3 4 5 6 7 8 9 10 11 12 13 14 15 16 17 18 19 20 21 22 23 24 25 26 27 28 29 30 31 32 33 34 35 36 37 38 39 40 41 42 43 44 45 46 47 48 49 50
000
ASUS43 KIND 071559
RWRIN

WEATHER ROUNDUP FOR INDIANA
NATIONAL WEATHER SERVICE INDIANAPOLIS IN
1100 AM EST SUN FEB 07 2016

NOTE: "FAIR" INDICATES FEW OR NO CLOUDS BELOW 12,000 FEET WITH NO
SIGNIFICANT WEATHER AND/OR OBSTRUCTIONS TO VISIBILITY.

* - STATION DOES NOT REPORT WEATHER SUCH AS PRECIPITATION OR FOG.

+ - STATION NOT QUALITY CONTROLLED BY THE NATIONAL WEATHER SERVICE.
    USE DATA WITH CAUTION...ESPECIALLY DEWPOINT AND RELATIVE
    HUMIDITY OBSERVATIONS.

INZ001>003-010>013-019-020-071700-
NORTHWEST INDIANA

CITY           SKY/WX    TMP DP  RH WIND       PRES   REMARKS
GARY /AIRPORT/ PTSUNNY   43  28  56 SW16G28   29.83F
RENSSELAER +   MOSUNNY   41  28  60 SW16      29.89S

$$

LMZ046-743>745-071700-
SOUTHERN LAKE MICHIGAN

STATION/POSITION TIME  TEMP    WIND        PRES    WAVE
                       AIR SEA DIR/SP/G            HT
                 (UTC) (F)     (DEG/KT/KT) (MB)    (FT)
BURNS HARBOR     1520   41     210/ 17/ 27 1010.8F
MICHIGAN CITY    1500   40     180/ 18/ 23   N/A

$$

INZ004-005-014>016-021>024-071700-
NORTH CENTRAL INDIANA

CITY           SKY/WX    TMP DP  RH WIND       PRES   REMARKS
ELKHART          N/A     39  28  65 S16       29.86F
GOSHEN         CLOUDY    40  29  64 S14       29.89F
PERU/GRISSOM   CLOUDY    43  30  61 SW14      29.93S
SOUTH BEND     CLOUDY    42  28  57 SW18G28   29.85F

$$

INZ006>009-017-018-025>027-071700-
NORTHEAST INDIANA

CITY           SKY/WX    TMP DP  RH WIND       PRES   REMARKS
FORT WAYNE     CLOUDY    40  29  64 SW15      29.96F

$$

INZ028-029-035-036-043>045-051>053-071700-
WEST CENTRAL INDIANA

CITY           SKY/WX    TMP DP  RH WIND       PRES   REMARKS
GREENCASTLE +  SUNNY     43  21  42 SW7       30.01S
LAFAYETTE      MOSUNNY   43  27  53 SW12G20   29.94F
TERRE HAUTE    SUNNY     46  28  49 SW14G22   30.00F

$$

INZ030>032-037>040-046>048-054>057-064-065-071700-
CENTRAL INDIANA

CITY           SKY/WX    TMP DP  RH WIND       PRES   REMARKS
GREENWOOD *+   MOSUNNY   45  28  53 SW9G16    30.03S
INDIANAPOLIS   PTSUNNY   45  24  43 S13       29.99F
-EAGLE CREEK   PTSUNNY   44  25  47 SW12G20   29.99F
KOKOMO *+        N/A     43 N/A N/A SW16G24   29.96S
MT COMFORT *+  MOSUNNY   41  27  56 S12       30.01F
SHELBYVILLE    CLOUDY    42  26  53 S14       30.02F

$$

INZ033-034-041-042-049-050-058-059-071700-
EAST CENTRAL INDIANA

CITY           SKY/WX    TMP DP  RH WIND       PRES   REMARKS
MUNCIE         MOSUNNY   43  25  49 SW9       29.99F

$$

INZ060-061-067>069-081>083-085>088-071700-
SOUTHWEST INDIANA

CITY           SKY/WX    TMP DP  RH WIND       PRES   REMARKS
EVANSVILLE     SUNNY     47  26  44 SW14      30.10F
HUNTINGBURG *+ SUNNY     45  28  53 SW15      30.10F

$$

INZ062-063-066-070>080-084-089>092-071700-
SOUTH CENTRAL AND SOUTHEAST INDIANA

CITY           SKY/WX    TMP DP  RH WIND       PRES   REMARKS
BLOOMINGTON    SUNNY     46  25  43 SW12      30.03F
MADISON *+     CLOUDY    45  25  45 S12       30.10S
SEYMOUR +      CLOUDY    43  27  52 S9        30.07F

$$




USA.gov is the U.S. government's official web portal to all federal, state and local government web resources and services.